Вернуться в каталог

ONEWEB-0311

АктивенСвязьPO
NORAD 49097·PAYLOAD·🇬🇧 United Kingdom

Запущен Aug 21, 2021 с Baikonur Cosmodrome

Loading…

Ближайшие Пролёты (ближайшие 24 часа)

TLE

СвежийSource: CelesTrak SupGP

Эпоха: Sep 14, 2026, 17:22 UTC

1 49097C 21075Y   26257.72412454  .00002479  00000+0  63924-2 0  2579
2 49097  87.9208 348.0818 0002074 114.3235 357.9719 13.17649634    15

Отслеживайте ONEWEB-0311 в реальном времени с AllMySat

Download on the App Store